This is the latest recevied weather packets stored in our database for station/object KD4VIF. If no packets are shown the sender has not sent any weather packets the latest 10 day(s).
| Time | Temp. | Humidity | Pressure | Rain* | Wind** | Luminosity | Snow |
|---|---|---|---|---|---|---|---|
| 1777567521 | 18.33° C | 100% | 1009.1 hPa | 0 mm | 0 m/s | - | - |
| 1777567221 | 17.78° C | 100% | 1009.1 hPa | 0 mm | 0.89 m/s, 338° | - | - |
| 1777566921 | 17.22° C | 100% | 1009.1 hPa | 0 mm | 0 m/s | - | - |
| 1777566622 | 17.78° C | 100% | 1009.1 hPa | 0 mm | 0 m/s | - | - |
| 1777566321 | 16.67° C | 100% | 1009.1 hPa | 0 mm | 0 m/s | - | - |
| 1777566021 | 17.22° C | 100% | 1009.2 hPa | 0 mm | 0 m/s | - | - |
| 1777565721 | 16.67° C | 100% | 1009.2 hPa | 0 mm | 0 m/s | - | - |
| 1777565421 | 16.67° C | 100% | 1009.1 hPa | 0 mm | 0 m/s | - | - |
| 1777565122 | 16.67° C | 100% | 1009.3 hPa | 0 mm | 1.34 m/s, 319° | - | - |
| 1777564821 | 16.67° C | 100% | 1009.4 hPa | 0 mm | 0 m/s | - | - |
| 1777564521 | 16.11° C | 100% | 1009.3 hPa | 0 mm | 0 m/s | - | - |
| 1777564221 | 16.11° C | 100% | 1009.3 hPa | 0 mm | 0 m/s | - | - |
| 1777563922 | 16.11° C | 100% | 1009.4 hPa | 0 mm | 0 m/s | - | - |
| 1777563621 | 16.11° C | 100% | 1009.3 hPa | 0.51 mm | 0 m/s | - | - |
| 1777563321 | 16.11° C | 100% | 1009.4 hPa | 0.51 mm | 0 m/s | - | - |
| 1777563021 | 15.56° C | 100% | 1009.5 hPa | 0.51 mm | 0 m/s | - | - |
| 1777562721 | 15.56° C | 100% | 1009.3 hPa | 0.51 mm | 0 m/s | - | - |
| 1777562121 | 15° C | 100% | 1009.2 hPa | 1.02 mm | 0 m/s | - | - |
| 1777561821 | 15° C | 100% | 1009.1 hPa | 1.02 mm | 0 m/s | - | - |
| 1777561521 | 15° C | 100% | 1008.9 hPa | 1.02 mm | 0 m/s | - | - |
| 1777560921 | 15° C | 100% | 1009.2 hPa | 1.52 mm | 0 m/s | - | - |
| 1777560620 | 15° C | 100% | 1009.2 hPa | 1.52 mm | 0 m/s | - | - |
| 1777560321 | 15° C | 100% | 1009.2 hPa | 1.52 mm | 0 m/s | - | - |
| 1777559963 | 15° C | 100% | 1009.1 hPa | 1.02 mm | 0 m/s | - | - |
| 1777559661 | 15° C | 100% | 1009.3 hPa | 1.02 mm | 0 m/s | - | - |
* Rain latest hour (hover to see other rain measurements)
** Current wind speed in m/s (hover to see current wind gust speed)